Location: Vancouver
(49.2500°N, 123.1333°W)
Time: 01:03:13
(UTC-07:00)

Daily predictions for brighter satellites

Satellite Brightness Start Highest point End
(mag) Time Altitude Azimuth Time Altitude Azimuth Time Altitude Azimuth
Cosmos 2369 Rocket 4.0 00:00:24 10° N 00:04:51 23° NE 00:08:01 15° E
COSMOS 2428 3.8 00:02:46 11° WSW 00:07:52 41° NW 00:13:17 10° NNE
Cosmos 2150 Rocket 4.0 00:03:13 10° NNW 00:08:40 73° WSW 00:09:04 69° SW
SL-24 DEB 4.2 00:08:46 76° WNW 00:08:46 76° WNW 00:13:21 10° N
Terra 3.5 00:11:00 22° WSW 00:11:47 23° W 00:15:37 10° NW
Okean 1 Rocket 4.0 00:11:25 10° NNW 00:15:27 40° W 00:15:27 40° W
CZ-2C R/B 3.1 00:17:19 58° ENE 00:17:21 58° ENE 00:22:12 10° N
Cosmos 990 Rocket 3.9 00:12:49 10° NNW 00:17:58 74° WSW 00:17:58 74° WSW
Cosmos 1455 Rocket 3.6 00:16:49 10° N 00:20:42 53° NE 00:20:42 53° NE
Cosmos 1943 Rocket 4.4 00:19:20 10° N 00:23:26 20° NE 00:27:31 10° E
Cosmos 1980 3.8 00:22:26 53° WSW 00:23:42 71° WNW 00:29:22 10° NNE
Okean 3 4.2 00:24:11 49° NW 00:24:11 49° NW 00:27:52 10° N
Cosmos 1898 Rocket 4.2 00:19:46 10° NW 00:24:36 41° WSW 00:24:37 41° WSW
SL-16 R/B 2.4 00:28:45 57° E 00:28:45 57° E 00:34:02 10° NE
Meteor 1-12 Rocket 4.2 00:24:40 10° N 00:30:35 80° ENE 00:31:12 71° SE
Cosmos 1125 Rocket 3.8 00:28:26 10° NNW 00:33:43 58° ENE 00:34:08 57° E
CZ-4C R/B 3.3 00:27:18 10° NW 00:33:56 43° WSW 00:34:57 41° SW
ALOS 2 2.9 00:37:54 64° NNW 00:37:54 64° NNW 00:41:39 10° NNW
Cosmos 1340 4.0 00:42:25 39° N 00:42:25 39° N 00:44:55 10° N
Cosmos 1763 Rocket 3.5 00:41:57 75° ENE 00:41:57 75° ENE 00:46:58 10° NNE
ATLAS CENTAUR R/B 3.1 00:44:21 25° ENE 00:44:21 25° ENE 00:46:10 10° NE
Cosmos 1500 4.4 00:39:17 10° NNW 00:41:56 42° NNW 00:41:56 42° NNW
Cosmos 2315 Rocket 4.0 00:43:31 58° SW 00:44:37 71° WNW 00:50:51 10° N
Cosmos 1975 Rocket 3.7 00:46:27 52° NW 00:46:27 52° NW 00:50:26 10° N
Cosmos 2333 Rocket 3.2 00:45:13 26° WSW 00:48:00 42° NW 00:53:29 10° NNE
Cosmos 372 Rocket 4.2 00:43:38 10° NNW 00:48:52 60° ENE 00:49:09 59° E
Cosmos 2278 Rocket 3.8 00:47:15 10° NW 00:51:27 22° W 00:51:30 22° WSW
Cosmos 2237 Rocket 2.9 00:49:57 37° WSW 00:51:47 50° NW 00:57:20 10° NNE
NOSS 3-1 (C) 4.2 00:48:24 20° WSW 00:52:32 53° NW 00:59:15 10° NE
Cosmos 1814 Rocket 4.1 00:54:12 64° WNW 00:54:24 65° WNW 00:59:33 10° NNE
SL-08 ROCKET BODY 4.2 00:48:48 10° NNW 00:54:44 78° W 00:55:14 72° SW
ARGOS Delta rocket 4.4 00:51:29 10° NNE 00:55:05 48° ENE 00:55:05 48° ENE
Landsat 5 4.5 00:57:12 40° NE 00:57:12 40° NE 01:00:30 10° N
Cosmos 371 Rocket 3.4 01:01:42 74° N 01:01:42 74° N 01:06:14 10° NNE
USA 81 4.5 01:01:54 50° W 01:02:12 51° W 01:07:22 10° N
CZ-2C R/B 2.6 00:57:32 10° NNE 01:03:02 86° WNW 01:03:19 81° SW
USA 267 4.0 00:59:06 10° E 01:05:23 52° NNE 01:11:42 10° WNW
Cosmos 1536 Rocket 4.1 01:07:47 57° NNE 01:07:47 57° NNE 01:11:19 10° N
Nadezhda 1 Rocket 4.0 01:06:30 61° SE 01:07:07 65° E 01:13:18 10° NNE
NOSS 3-1 (A) 4.1 01:04:20 27° WSW 01:07:35 55° NW 01:14:20 10° NE
Cosmos 1975 4.2 01:04:51 10° NNW 01:07:26 34° NW 01:07:26 34° NW
ATLAS 2AS CENTAUR R/B 3.0 01:07:36 55° SSE 01:08:54 61° ESE 01:16:52 10° NE
Meteor 2-4 Rocket 4.3 01:12:21 42° E 01:12:21 42° E 01:17:27 10° NNE
Meteor 1-18 Rocket 4.5 01:12:06 56° WSW 01:12:49 60° WNW 01:18:41 10° N
Cosmos 2184 Rocket 4.0 01:07:38 10° NNW 01:13:59 71° W 01:14:45 64° SW
Meteor 1-13 Rocket 4.3 01:14:04 66° ESE 01:14:24 68° E 01:20:19 10° NNE
NOSS 3-2 (A) 4.4 01:11:48 10° NW 01:18:56 57° NE 01:26:14 12° ESE
Cosmos 2327 Rocket 4.4 01:13:37 10° NNW 01:19:40 67° W 01:20:11 64° SW
Cosmos 540 Rocket 3.7 01:20:49 61° ENE 01:20:49 61° ENE 01:25:27 10° NNE
Cosmos 332 Rocket 4.5 01:20:28 45° WNW 01:20:42 46° WNW 01:25:21 10° NNE
Cosmos 2219 Rocket 4.2 01:16:50 10° W 01:21:16 23° NW 01:25:45 10° N
CZ-4B R/B 3.5 01:25:41 27° NNW 01:25:41 27° NNW 01:27:17 10° NNW
Meteor 1-19 Rocket 4.2 01:23:47 71° SE 01:24:10 74° E 01:30:04 10° NNE
Cosmos 841 Rocket 3.7 01:24:13 60° WNW 01:24:25 61° WNW 01:29:34 10° NNE
Cosmos 1943 4.3 01:24:55 31° E 01:24:55 31° E 01:29:36 10° NE
NOSS 2-3 (E) 4.1 01:26:50 68° E 01:26:50 68° E 01:32:09 10° NE
Cosmos 1743 4.3 01:30:30 10° NNW 01:32:41 30° NW 01:32:41 30° NW
Cosmos 2341 Rocket 4.0 01:31:01 10° N 01:37:16 76° E 01:38:20 61° SE
Meteor 2-19 Rocket 4.4 01:33:51 10° N 01:39:56 74° ENE 01:40:53 62° SE
ATLAS 3B R/B 2.6 01:33:31 10° NW 01:40:14 60° WSW 01:40:31 60° SW
Cosmos 44 4.3 01:36:35 10° NNW 01:40:42 37° NE 01:41:48 32° ENE
Cosmos 1666 4.1 01:38:06 10° NNW 01:40:30 34° NNW 01:40:30 34° NNW
Cosmos 1726 Rocket 4.3 01:39:05 10° N 01:43:10 48° ENE 01:43:10 48° ENE
Cosmos 1603 3.5 01:46:12 79° S 01:46:32 84° ESE 01:52:19 10° NNE
Cosmos 1025 Rocket 3.6 01:48:11 55° NE 01:48:11 55° NE 01:51:48 10° NNE
Cosmos 2369 Rocket 2.0 01:43:56 10° NNW 01:49:34 83° WSW 01:49:47 81° SSW
H-2A R/B 3.3 01:48:56 10° NNE 01:51:42 45° NNE 01:51:42 45° NNE
Cosmos 2154 Rocket 4.0 01:46:49 10° NNW 01:53:01 66° W 01:53:46 61° SW
USA 238 DEB 3.7 01:50:39 10° NW 01:57:38 64° SW 01:58:38 58° SSW
USA 238 3.7 01:50:45 10° NW 01:57:45 65° SW 01:58:47 58° SSW
NOSS 2-3 (C) 4.0 01:57:44 68° W 01:58:14 74° NW 02:04:11 10° NE
Okean 1-7 Rocket 3.8 02:03:24 64° NNW 02:03:24 64° NNW 02:07:14 10° N
Cosmos 405 Rocket 3.9 02:06:49 39° NNW 02:06:49 39° NNW 02:09:22 10° N
COSMOS 2455 3.7 02:00:19 10° NNW 02:06:09 48° NE 02:11:57 10° ESE
Cosmos 1943 Rocket 2.2 02:02:27 10° NNW 02:08:10 78° ENE 02:09:24 56° SE
Cosmos 783 Rocket 4.4 02:08:28 75° W 02:08:42 77° WNW 02:13:57 10° NNE
Cosmos 1238 Rocket 3.7 02:09:18 57° W 02:09:34 58° WNW 02:15:22 10° N
Meteor 1-23 Rocket 4.0 02:09:20 73° SSW 02:09:54 85° WNW 02:15:32 10° N
SL-16 R/B 3.6 02:10:35 23° W 02:12:55 31° NW 02:17:58 10° NNE
USA 215 3.3 02:06:55 10° ENE 02:13:20 56° SE 02:14:19 51° S
Cosmos 2058 Rocket 3.2 02:09:01 10° N 02:13:07 69° NE 02:13:07 69° NE
Cosmos 1461 3.5 02:11:18 10° NW 02:14:29 53° NNW 02:14:29 53° NNW
PSLV R/B 4.1 02:20:37 69° NNE 02:20:37 69° NNE 02:24:27 10° N
ATLAS CENTAUR R/B 3.0 02:20:36 25° WNW 02:21:24 27° NW 02:24:50 10° NNE
Cosmos 292 Rocket 4.2 02:22:52 51° ESE 02:23:02 51° ESE 02:27:45 10° NNE
Gbstr 26 Del rocket 4.5 02:19:31 22° WSW 02:25:17 83° NNW 02:32:55 10° ENE
Meteor 1-15 Rocket 4.5 02:22:03 10° NNW 02:27:43 53° W 02:28:08 52° WSW
Cosmos 1538 Rocket 3.8 02:28:40 70° SSE 02:29:08 77° ESE 02:34:20 10° NNE
NOSS 3-2 (C) 3.9 02:21:49 10° NW 02:29:12 89° SW 02:37:18 10° SE
Cosmos 724 4.4 02:24:12 10° NW 02:30:22 81° NE 02:33:44 28° SE
Cosmos 1892 Rocket 3.5 02:30:30 86° NNE 02:30:30 86° NNE 02:34:56 10° N
SL-24 R/B 4.4 02:32:44 56° WNW 02:32:44 56° WNW 02:36:48 10° NNW
Cosmos 44 Rocket 3.3 02:29:22 10° NW 02:33:24 60° WNW 02:33:24 60° WNW
Cosmos 2218 Rocket 3.9 02:32:36 10° NNW 02:38:51 75° W 02:40:20 53° SSW
CENTAUR R/B 3.7 02:32:08 10° NW 02:39:34 56° NE 02:47:42 10° ESE
Cosmos 2181 Rocket 4.2 02:38:27 49° SW 02:40:03 63° WNW 02:46:29 10° N
Meteor 2-21 Rocket 4.4 02:34:56 10° N 02:41:08 80° E 02:43:24 41° SSE
SL-16 R/B 3.4 02:36:44 12° SE 02:42:09 46° ENE 02:48:01 10° N
Cosmos 2366 rocket 3.9 02:36:10 10° NNW 02:42:31 79° W 02:44:18 50° S
Helios 1A Rocket 2.9 02:41:23 10° N 02:45:16 72° NW 02:45:16 72° NW
Cosmos 1602 Rocket 4.2 02:47:08 44° SE 02:47:50 49° E 02:52:08 10° NNE
USA 267 3.1 02:41:38 10° SE 02:48:12 84° SSW 02:54:48 10° WNW
Meteor 2-21 4.3 02:43:12 10° NNW 02:49:21 76° W 02:51:06 49° S
Cosmos 1656 Rocket 3.6 02:44:53 10° NNW 02:50:20 77° ENE 02:53:09 29° SE
Cosmos 864 Rocket 4.5 02:46:12 10° NNW 02:52:30 71° W 02:54:24 47° SSW
Cosmos 1437 Rocket 4.0 02:49:25 10° NNW 02:51:56 31° NW 02:51:56 31° NW
SL-8 Rocket 4.2 02:48:31 10° NNW 02:54:26 49° W 02:55:36 44° SW
Iridium 2 4.0 02:50:51 10° N 02:54:11 60° NW 02:54:11 60° NW
Cosmos 1441 Rocket 4.4 02:55:10 33° WNW 02:55:10 33° WNW 02:58:19 10° N
IRS-P3 4.3 02:50:27 10° NNE 02:55:47 66° ESE 02:57:20 45° SSE
NOSS 3-4 (A) 3.8 02:57:11 41° S 02:59:07 58° ESE 03:05:32 10° NE
NOSS 3-4 (C) 3.8 02:57:17 41° S 02:59:14 57° ESE 03:05:38 10° NE
Cosmos 2228 3.5 02:55:00 10° NNW 02:58:55 46° WNW 02:58:55 46° WNW
Genesis I 3.3 02:56:05 10° NW 02:59:40 71° NW 02:59:40 71° NW
ATLAS 2AS CENTAUR R/B 3.7 02:55:00 21° W 03:00:16 51° NW 03:08:11 10° NE
Cosmos 773 Rocket 3.9 03:00:33 57° SW 03:01:38 81° WNW 03:06:51 10° NNE
PSLV R/B 4.3 03:02:43 10° N 03:07:09 43° WNW 03:07:46 41° W
UNK 4.3 03:05:30 24° SE 03:08:02 54° ENE 03:12:31 10° N
Cosmos 1943 3.7 03:06:43 37° WSW 03:08:31 51° NW 03:14:02 10° NNE
NOSS 3-2 (A) 4.2 03:02:50 10° NW 03:09:56 49° WSW 03:13:30 31° S
Cosmos 2112 Rocket 4.4 03:10:59 38° SSE 03:12:46 58° ESE 03:17:57 10° NNE
Aureole 1 Rocket 3.3 03:16:56 47° S 03:18:21 75° ESE 03:22:29 10° NNE
Lacrosse 5 rocket 3.6 03:17:23 16° SE 03:18:26 17° SE 03:21:27 10° E
Cosmos 1544 3.6 03:17:11 10° N 03:20:51 56° ENE 03:21:57 38° SE
Cosmos 44 4.3 03:17:54 10° NW 03:20:11 25° WNW 03:20:11 25° WNW
Cosmos 1271 Rocket 3.6 03:18:55 10° N 03:22:33 45° ENE 03:24:30 23° SE
Cosmos 1805 3.8 03:18:43 10° N 03:22:38 57° ENE 03:24:16 31° SE
NPP 3.6 03:18:43 10° NNE 03:24:09 82° WNW 03:26:10 40° SSW
Cosmos 1624 Rocket 4.2 03:19:11 10° NNW 03:24:25 72° ENE 03:29:38 10° SSE
Resurs 1-4 Rocket 2.7 03:22:30 10° NNE 03:27:39 51° E 03:30:41 24° SSE
SL-08 R/B 3.6 03:30:19 43° SW 03:31:01 47° W 03:35:39 10° NNW
Spot 4 Rocket 4.3 03:26:35 10° NNE 03:31:44 63° ESE 03:34:25 28° S
Cosmos 2369 Rocket 4.1 03:29:50 10° WNW 03:31:33 14° W 03:31:33 14° W
Cosmos 1812 Rocket 3.7 03:29:04 10° NNW 03:33:24 56° W 03:34:13 47° SW
Nadezhda 3 Rocket 4.0 03:30:43 31° SSW 03:33:57 85° W 03:40:22 10° N
Cosmos 921 Rocket 3.5 03:29:47 10° NNW 03:34:15 62° ENE 03:38:43 10° SSE
Cosmos 2056 Rocket 3.5 03:32:27 10° NNW 03:37:52 85° ENE 03:43:08 10° SSE
CZ-2D R/B 2.4 03:33:07 10° NNE 03:38:25 61° E 03:41:35 24° S
Cosmos 374 Rocket 4.0 03:34:36 10° NW 03:38:27 74° SW 03:42:18 10° SE
RESURS DK-1 2.5 03:37:33 44° S 03:38:42 67° ESE 03:42:49 10° NE
Cosmos 1766 3.5 03:35:04 10° NNW 03:38:59 50° W 03:39:23 48° WSW
Cosmos 1842 3.2 03:38:59 44° S 03:40:07 79° E 03:44:01 10° NNE
Meteor 1-4 Rocket 3.0 03:36:38 10° NNW 03:40:18 46° W 03:40:23 46° W
CBERS-1 4.1 03:37:45 10° N 03:42:49 62° WNW 03:44:53 34° SW
Cosmos 1680 Rocket 3.5 03:43:51 35° SW 03:46:04 69° WNW 03:51:20 10° NNE
ADEOS 3.7 03:44:21 10° NNE 03:49:35 75° ESE 03:52:48 24° S
Cosmos 1943 Rocket 3.6 03:47:21 10° NW 03:50:53 19° W 03:50:53 19° W
COSMOS 2455 3.2 03:46:27 10° NW 03:52:02 40° WSW 03:55:09 23° SSW
SL-27 R/B 2.8 03:50:58 38° S 03:52:08 62° ESE 03:55:45 10° NNE
Cosmos 1953 Rocket 4.1 03:49:33 21° SSE 03:52:21 58° E 03:56:46 10° NNE
Cosmos 192 4.3 03:53:32 31° SSW 03:55:55 87° WNW 04:00:53 10° NNE
IRS-1D 3.5 03:50:53 10° NNE 03:56:06 88° E 03:59:23 24° SSW
USA 215 3.5 03:50:00 10° ENE 03:56:28 65° NNW 04:01:39 17° W
DNEPR-1 R/B 3.7 03:52:56 10° NW 03:57:11 70° NE 04:01:30 10° SE
CZ-2D R/B 4.5 03:56:39 10° NNE 04:00:34 41° E 04:03:46 14° SSE
ATLAS CENTAUR R/B 4.3 04:01:29 10° NNW 04:01:41 10° NNW 04:01:52 10° NNW
COSMOS 2406 3.2 03:59:48 27° SSW 04:03:09 84° WNW 04:08:57 10° NNE
MOZ.5/SAFIR/RUBIN 5/SL-8 3.9 03:58:34 10° SSE 04:03:13 78° ENE 04:07:56 10° N
Cosmos 1707 4.3 04:03:23 10° SSE 04:06:54 33° E 04:10:24 10° NNE
ARIANE 5 R/B 2.5 04:01:45 10° NNE 04:07:02 81° WNW 04:10:30 22° SSW
COBE Rocket 3.9 04:03:24 10° NNE 04:08:32 89° ESE 04:12:04 20° SSW
Cosmos 1470 2.9 04:06:17 10° N 04:10:12 74° E 04:14:06 10° SSE
Cosmos 1953 2.4 04:08:11 10° NNW 04:12:06 56° W 04:14:22 23° SSW
Cosmos 1452 Rocket 3.7 04:07:36 10° NNW 04:12:53 74° ENE 04:18:08 10° SSE
Cosmos 1371 Rocket 4.5 04:08:27 10° NW 04:13:28 40° WSW 04:17:04 17° SSW
NOSS 2-2 (E) 4.1 04:11:37 23° SSW 04:14:04 53° ESE 04:18:53 10° NE
Cosmos 1825 Rocket 3.6 04:12:23 26° SSW 04:14:48 63° WNW 04:19:12 10° N
Cosmos 1821 Rocket 4.2 04:10:14 10° NNW 04:16:03 48° W 04:20:33 17° SSW
CZ-3A R/B 1.0 04:18:45 26° NNW 04:19:00 27° N 04:21:17 10° NE
COSMOS 2487 4.3 04:18:08 10° SSE 04:21:11 27° ESE 04:24:16 10° NE
UNKNOWN OBJECT B 2.8 04:19:56 10° NNE 04:23:57 88° ESE 04:27:03 17° SSW
GEOS 3 Rocket 3.7 04:18:58 10° NE 04:24:16 86° NW 04:28:09 19° SW
Okean O Rocket 3.6 04:22:01 10° NE 04:25:48 27° E 04:29:34 10° SSE
SL-16 R/B 3.1 04:21:49 17° SSW 04:25:55 36° W 04:31:34 10° NNW
ADEOS Rocket 3.2 04:22:49 10° N 04:28:38 61° WNW 04:33:57 15° SW
Cosmos 1758 4.1 04:24:55 10° NNW 04:28:39 34° W 04:30:41 21° SW
Cosmos 1420 Rocket 4.4 04:24:11 10° NNW 04:29:31 69° ENE 04:34:48 10° SSE
CENTAUR R/B 3.2 04:22:57 10° NW 04:30:29 54° WSW 04:38:33 10° SSE
USA 267 3.9 04:26:15 10° S 04:31:49 29° SW 04:37:24 10° WNW
Cosmos 1818 3.9 04:28:18 16° SSW 04:32:41 65° ESE 04:38:06 10° NE
ADEOS II 3.6 04:28:38 10° NNE 04:33:25 34° E 04:38:11 10° SSE
Tiangong 1 2.7 04:35:40 16° S 04:35:40 16° S 04:37:13 10° SSE
Cosmos 1605 Rocket 4.0 04:30:36 10° NNW 04:36:43 61° W 04:42:44 10° S
Abrixas 2.2 04:36:11 23° W 04:37:46 76° S 04:40:35 10° E
Cosmos 1934 Rocket 4.4 04:31:56 10° NNW 04:37:49 43° W 04:43:43 10° SSW
EXPRESS MD2 3.6 04:32:38 10° WNW 04:38:49 56° SSW 04:41:59 10° SE
Cosmos 1339 Rocket 4.4 04:41:07 10° S 04:47:12 85° W 04:53:22 10° N
Cosmos 1733 3.6 04:43:55 10° NNW 04:47:32 41° W 04:51:06 10° SSW
NOSS 2-2 (D) 3.6 04:46:39 15° SW 04:50:01 89° SE 04:55:02 10° NE
NOSS 3-4 (A) 4.3 04:44:37 12° WSW 04:50:17 43° NNW 04:56:39 10° NE
NOSS 3-4 (C) 4.3 04:44:43 12° WSW 04:50:23 44° NNW 04:56:46 10° NE
USA 161 2.4 04:49:30 15° SSW 04:51:29 30° W 04:54:05 10° NNW
Cosmos 389 Rocket 3.1 04:49:37 10° NNW 04:53:02 37° W 04:56:23 10° SSW
BREEZE-M DEB (TANK) 4.5 04:51:58 10° W 04:56:44 89° SSE 05:23:24 10° E
Lacrosse 5 rocket 1.7 04:53:05 14° SW 04:57:07 77° SE 05:01:46 10° ENE
Cosmos 1271 Rocket 4.4 04:55:59 10° NW 04:58:13 15° W 04:59:40 13° WSW
Cosmos 2098 Rocket 3.2 04:58:18 10° NNW 05:00:53 25° W 05:03:08 11° SSW
Cosmos 1842 Rocket 3.5 04:58:15 10° NNW 05:02:39 75° W 05:07:04 10° S
Orbus 7S? 3.2 04:59:16 10° WNW 05:02:42 37° SW 05:05:10 10° SSE
MOS 1 Rocket 3.2 04:58:43 10° N 05:02:59 63° WNW 05:07:22 10° SSW
CZ-4B R/B 3.6 04:59:07 10° NNE 05:03:21 62° E 05:07:45 10° S
Cosmos-2242 3.7 04:59:26 10° NNW 05:03:27 34° W 05:07:25 10° SSW
Cosmos 1697 Rocket 2.8 04:58:54 10° NNW 05:04:34 87° ENE 05:10:11 10° SSE
Resurs 1-4 Rocket 3.2 05:02:49 10° N 05:07:14 28° WNW 05:11:38 10° WSW
Cosmos 2100 Rocket 4.0 05:01:48 10° NNW 05:08:02 78° W 05:14:11 10° S
NOSS 2-2 (C) 3.8 05:04:31 11° SW 05:08:27 67° NW 05:13:32 10° NE
Cosmos 2278 4.0 05:03:35 10° NW 05:09:03 47° WSW 05:14:30 10° S
MTI 4.2 05:07:10 10° SSE 05:10:23 68° ENE 05:13:37 10° N
PSLV R/B 4.3 05:06:09 10° NNE 05:10:30 57° E 05:14:46 10° S
EO 1 Del DPAF 3.4 05:08:19 10° SSE 05:12:11 79° ENE 05:16:04 10° NNW
Cosmos 2173 Rocket 4.0 05:08:46 10° NNW 05:15:06 76° W 05:21:18 10° S
Cosmos 2369 4.1 05:11:11 10° NW 05:16:35 43° WSW 05:21:56 10° S
RESURS DK-1 4.2 05:14:10 10° W 05:17:12 19° NW 05:20:14 10° N
CZ-2D R/B 3.5 05:13:54 10° N 05:18:06 24° WNW 05:22:14 10° WSW
Cosmos 2221 2.8 05:18:45 10° N 05:23:04 76° ENE 05:27:20 10° SSE
Meteor 2-5 Rocket 4.0 05:19:58 10° SSW 05:25:37 59° WNW 05:31:26 10° N
Cosmos 2322 Rocket 4.0 05:22:22 10° NNW 05:27:37 37° NE 05:32:51 10° ESE
